Location: Amon Carter Post Office
(32.8281°N, 97.0484°W)
Time: 23:43:41
(UTC+00:00)

Lacrosse 5 rocket - Pass Details

Date: 03 July 2022
Orbit: 456 x 628 km, 57.0° (Epoch: 09 August)

Event Time Altitude Azimuth Distance (km) Brightness Sun altitude
Rises 04:40:56 0° 303° (WNW) 2,645 5.7 -28.2°
Reaches altitude 10° 04:43:33 10° 286° (WNW) 1,788 4.4 -28.5°
Enters shadow 04:44:51 16° 269° (W) 1,477 3.7 -28.6°
